Flag for Canada Weather past 2 weeks in Charlottetown, Prince Edward Island, Canada

43 °F

Passing clouds.

Feels Like: 40 °F
Forecast: 42 / 57 °F
Wind: 5 mph from North

Location: Charlottetown

Current Time: Oct 4, 2015 at 7:14:44 AM

Latest Report: Oct 4, 2015 at 6:00 AM

Visibility: 15 mi

Pressure: 30.47 "Hg

Humidity: 87%

Dew point: 39 °F

Location of CharlottetownLocation

Historic Weather in Charlottetown — Graph


Charlottetown temperature yesterday

Maximum temperature yesterday: 50 °F (at 12:00 AM)
Minimum temperature yesterday: 45 °F (at 8:00 PM)
Average temperature yesterday: 48 °F

Past Weeks' High & Low Weather Summary

High79 °F (Sep 19, 3:00 PM)100% (Sep 20, 5:45 PM)30.50 "Hg (Sep 20, 5:45 PM)
Low39 °F (Sep 25, 10:00 PM)43% (Sep 28, 2:00 PM)29.76 "Hg (Oct 1, 4:00 AM)
Average58 °F79%30.20 "Hg
* Reported Sep 19 6:00 AM — Oct 4 6:00 AM, Charlottetown, Weather by CustomWeather, © 2015

Note: Actual official high and low records may vary slightly from our data, if they occured in-between our weather recording intervals... More about our weather records


Charlottetown weather history for previous 24 hours

Time TempWeatherWind HumidityBarometerVisibility
6:00 AM
Sun, Oct 4
43 °FPassing clouds.5 mph87%30.47 "Hg15 mi
5:00 AM41 °FPassing clouds.5 mph81%30.47 "Hg15 mi
4:00 AM43 °FPassing clouds.6 mph76%30.47 "Hg15 mi
3:00 AM43 °FPassing clouds.5 mph81%30.48 "Hg15 mi
2:00 AM43 °FPassing clouds.6 mph81%30.48 "Hg15 mi
1:00 AM43 °FPassing clouds.6 mph76%30.49 "Hg15 mi
12:00 AM43 °FPassing clouds.6 mph76%30.50 "Hg15 mi
11:00 PM
Sat, Oct 3
45 °FPassing clouds.14 mph71%30.49 "Hg15 mi
10:00 PM45 °FPassing clouds.12 mph71%30.50 "Hg15 mi
9:00 PM45 °FPassing clouds.14 mph71%30.49 "Hg15 mi
8:00 PM45 °FPassing clouds.15 mph71%30.48 "Hg15 mi
7:00 PM46 °FPartly sunny.15 mph66%30.49 "Hg15 mi
6:00 PM46 °FPartly sunny.15 mph66%30.48 "Hg15 mi
5:00 PM50 °FScattered showers. Partly sunny.22 mph67%30.47 "Hg15 mi
4:00 PM48 °FSprinkles. Partly sunny.16 mph76%30.47 "Hg12 mi
3:00 PM48 °FScattered showers. Mostly cloudy.18 mph82%30.47 "Hg15 mi
2:10 PM50 °FScattered showers. Mostly cloudy.25 mph71%30.46 "Hg15 mi
1:00 PM50 °FScattered showers. Mostly cloudy.18 mph76%30.45 "Hg15 mi
12:00 PM50 °FSprinkles. Partly sunny.23 mph76%30.44 "Hg12 mi
11:00 AM48 °FSprinkles. Overcast.17 mph87%30.44 "Hg12 mi
10:00 AM48 °FSprinkles. Mostly cloudy.20 mph87%30.42 "Hg8 mi
9:00 AM48 °FSprinkles. Fog.17 mph87%30.42 "Hg5 mi
8:00 AM48 °FSprinkles. Fog.16 mph94%30.40 "Hg2 mi
7:00 AM48 °FSprinkles. Fog.18 mph94%30.37 "Hg3 mi
Weather by CustomWeather, © 2015

See weather overviewHow to use our weather pages